User: anonymous   Login
Location: Unspecified
(0.0000°N, 0.0000°E)
Time: 07:18:38
(UTC+00:00)
Language:

SWAS - Orbit

View from above orbital plane
View from above orbital plane
View from above satellite
View from above satellite

Ground track
Ground track

The orbit data is extracted from the following two-line orbital elements,

1 25560U 98071A   19051.92297516 +.00000150 +00000-0 +22744-4 0  9999
2 25560 069.8993 157.5413 0009253 325.8574 034.1986 14.93697593096960
Epoch (UTC): 20 February 2019 22:09:05
Eccentricity: 0.0009253
inclination: 69.8993°
perigee height: 580 km
apogee height: 593 km
right ascension of ascending node: 157.5413°
argument of perigee: 325.8574°
revolutions per day: 14.93697593
mean anomaly at epoch: 34.1986°
orbit number at epoch: 9696

The dashed part of the orbit path shows where the satellite is in the earth's shadow,  

DLR